FW3816 Weather Reports


time (UTC)temp
F
wind
direction
speed
knots
gust
knots
rain 1hr
in
rain 24hr
in
rain mn
in
humidity
%
barometer
mb
20260504081545 43 299 7.0 7.8 0.00 0.00 0.00 56 1005.2
20260504060126 46 313 5.2 7.8 0.00 0.00 0.00 57 1005.6
20260504050113 47 327 5.2 8.7 0.00 0.00 0.00 54 1005.7
20260504044523 48 286 4.3 7.0 0.00 0.00 0.00 53 1005.7
20260504043025 50 289 7.0 8.7 0.00 0.00 0.00 50 1005.8
20260504041521 51 263 6.1 7.8 0.00 0.00 0.00 49 1005.6
20260504040020 53 304 3.5 4.3 0.00 0.00 0.00 44 1005.5
20260504034519 54 96 0.0 0.9 0.00 0.00 0.00 43 1005.4
20260504033019 56 88 1.7 3.5 0.00 0.00 0.00 43 1005.1
20260504031516 57 46 3.5 5.2 0.00 0.00 0.00 39 1004.9
20260504030016 59 22 4.3 7.8 0.00 0.00 0.00 37 1004.8
20260504024515 60 42 5.2 9.6 0.00 0.00 0.00 36 1004.6
20260504023014 60 46 7.0 10.4 0.00 0.00 0.00 35 1004.4
20260504021511 61 53 6.1 10.4 0.00 0.00 0.00 35 1004.4
20260504020010 63 45 7.0 13.0 0.00 0.00 0.00 33 1004.4
20260504014510 64 58 9.6 13.9 0.00 0.00 0.00 32 1004.4
20260504013013 65 64 8.7 13.9 0.00 0.00 0.00 29 1004.5
20260504011505 65 22 10.4 14.8 0.00 0.00 0.00 29 1004.5
20260504010004 66 34 8.7 13.0 0.00 0.00 0.00 28 1004.6
20260504004506 67 28 11.3 14.8 0.00 0.00 0.00 28 1004.6
20260504003003 67 30 9.6 15.6 0.00 0.00 0.00 28 1004.7
20260504001603 68 59 4.3 8.7 0.00 0.00 0.00 24 1004.7
20260504000059 70 240 3.5 6.1 0.00 0.00 0.00 20 1004.8
20260503234556 71 10 0.9 4.3 0.00 0.00 0.00 20 1004.9
20260503233102 69 220 0.0 5.2 0.00 0.00 0.00 19 1004.9
20260503231552 70 9 4.3 11.3 0.00 0.00 0.00 20 1004.9
20260503230049 71 50 7.0 11.3 0.00 0.00 0.00 23 1005.1
20260503224548 71 246 1.7 7.0 0.00 0.00 0.00 21 1005.1
20260503223048 70 298 4.3 18.2 0.00 0.00 0.00 19 1005.3
20260503221551 71 289 6.1 12.2 0.00 0.00 0.00 19 1005.4
20260503220045 73 267 7.0 9.6 0.00 0.00 0.00 19 1005.4
20260503214537 72 291 2.6 6.1 0.00 0.00 0.00 21 1006.0
20260503213036 71 165 2.6 9.6 0.00 0.00 0.00 22 1006.1
20260503211529 71 341 0.9 9.6 0.00 0.00 0.00 22 1006.5
20260503210040 70 360 0.9 7.0 0.00 0.00 0.00 22 1006.9
20260503204525 69 134 2.6 9.6 0.00 0.00 0.00 22 1007.1
20260503203020 69 110 6.1 10.4 0.00 0.00 0.00 23 1007.2
20260503201524 68 138 3.5 8.7 0.00 0.00 0.00 25 1007.5
20260503200047 66 101 2.6 8.7 0.00 0.00 0.00 26 1007.8
20260503194545 66 104 1.7 11.3 0.00 0.00 0.00 25 1007.7
20260503193036 67 43 6.1 14.8 0.00 0.00 0.00 25 1007.9
20260503191535 68 38 8.7 13.0 0.00 0.00 0.00 27 1008.0
20260503190042 67 74 6.1 10.4 0.00 0.00 0.00 27 1008.5
20260503184529 66 127 4.3 12.2 0.00 0.00 0.00 29 1009.0
20260503183024 64 95 3.5 10.4 0.00 0.00 0.00 27 1009.2
20260503181518 64 80 1.7 8.7 0.00 0.00 0.00 27 1009.5
20260503180014 64 67 0.0 3.5 0.00 0.00 0.00 29 1009.9
20260503174511 62 94 4.3 8.7 0.00 0.00 0.00 31 1010.2
20260503173005 62 101 1.7 3.5 0.00 0.00 0.00 32 1010.4
20260503171501 60 73 1.7 10.4 0.00 0.00 0.00 33 1010.6